Change the Weather History Date:

Thursday, August 28, 2014

  Actual Average (KMKO) Record (KMKO)
Temperature  
Mean Temperature 80 °F -  
Max Temperature 94 °F 90 °F 102 °F (2011)
Min Temperature 65 °F 66 °F 63 °F (2010)
Cooling Degree Days 14    
Growing Degree Days 30 (Base 50)    
Moisture  
Dew Point 66 °F    
Average Humidity 64    
Maximum Humidity 97    
Minimum Humidity 33    
Precipitation  
Precipitation 0.00 in - - ()
Sea Level Pressure  
Sea Level Pressure 29.94 in    
Wind  
Wind Speed 5 mph (SSE)    
Max Wind Speed 18 mph    
Max Gust Speed 29 mph    
Visibility 10 miles    
Events      
Averages and records for this station are not official NWS values.
T = Trace of Precipitation, MM = Missing Value Source: NWS Daily Summary

Daily Weather History Graph

Daily Weather History Graph

Search for Another Location

Airport or City:

Trip Planner

Search our weather history database for the weather conditions in past years. The results will help you decide how hot, cold, wet, or windy it might be!

Date:

Astronomy

Aug. 28, 2014 Rise Set
Actual Time 6:52 AM CDT 7:56 PM CDT
Civil Twilight 6:26 AM CDT 8:22 PM CDT
Nautical Twilight 5:55 AM CDT 8:53 PM CDT
Astronomical Twilight 5:22 AM CDT 9:26 PM CDT
Moon 9:38 AM CDT (8/28) 9:29 PM CDT (8/28)
Length of Visible Light 13h 56m
Length of Day
13h 03m
Waxing Crescent, 9% of the Moon is Illuminated
Aug 28
Waxing Crescent
Sep 2
First Quarter
Sep 8
Full
Sep 15
Last Quarter
Sep 24
New

Hourly Weather History & Observations

Time (CDT) Temp. Heat Index Dew Point Humidity Pressure Visibility Wind Dir Wind Speed Gust Speed Precip Events Conditions
12:15 AM 76.3 °F - 69.1 °F 78% 30.01 in 10.0 mi Calm Calm - N/A   Clear
12:35 AM 73.2 °F - 68.5 °F 85% 30.01 in 10.0 mi Calm Calm - N/A   Clear
12:55 AM 75.0 °F - 68.5 °F 80% 30.00 in 10.0 mi Calm Calm - N/A   Clear
1:15 AM 75.7 °F - 68.4 °F 78% 30.01 in 10.0 mi Calm Calm - N/A   Clear
1:35 AM 74.7 °F - 68.2 °F 80% 30.00 in 10.0 mi Calm Calm - N/A   Clear
1:55 AM 73.0 °F - 68.2 °F 85% 30.00 in 10.0 mi Calm Calm - N/A   Clear
2:15 AM 73.0 °F - 67.8 °F 84% 30.00 in 10.0 mi Calm Calm - N/A   Clear
2:35 AM 72.1 °F - 67.6 °F 86% 29.99 in 10.0 mi SE 3.5 mph - N/A   Clear
2:55 AM 72.3 °F - 67.1 °F 84% 29.98 in 10.0 mi South 4.6 mph - N/A   Clear
3:15 AM 72.1 °F - 67.1 °F 84% 29.98 in 10.0 mi South 4.6 mph - N/A   Clear
3:35 AM 70.7 °F - 67.1 °F 88% 29.98 in 10.0 mi Calm Calm - N/A   Clear
3:55 AM 71.8 °F - 66.9 °F 85% 29.98 in 10.0 mi SSW 6.9 mph - N/A   Clear
4:15 AM 70.5 °F - 66.6 °F 87% 29.98 in 10.0 mi SSE 4.6 mph - N/A   Clear
4:35 AM 68.5 °F - 66.2 °F 92% 29.98 in 10.0 mi Calm Calm - N/A   Clear
4:55 AM 70.3 °F - 66.7 °F 88% 29.98 in 10.0 mi ESE 8.1 mph - N/A   Clear
5:15 AM 68.2 °F - 66.4 °F 94% 29.98 in 10.0 mi South 3.5 mph - N/A   Clear
5:35 AM 69.8 °F - 66.4 °F 89% 29.98 in 10.0 mi SE 4.6 mph - N/A   Clear
5:55 AM 66.9 °F - 65.7 °F 96% 29.98 in 10.0 mi East 5.8 mph - N/A   Clear
6:15 AM 68.4 °F - 66.4 °F 93% 29.98 in 10.0 mi East 4.6 mph - N/A   Clear
6:35 AM 66.2 °F - 64.6 °F 94% 29.98 in 7.0 mi Calm Calm - N/A   Clear
6:55 AM 66.4 °F - 65.3 °F 96% 29.98 in 7.0 mi Calm Calm - N/A   Clear
7:15 AM 65.7 °F - 64.8 °F 97% 29.98 in 5.0 mi Calm Calm - N/A   Clear
7:35 AM 67.3 °F - 66.4 °F 97% 29.99 in 7.0 mi Calm Calm - N/A   Clear
7:55 AM 70.5 °F - 67.8 °F 91% 29.99 in 10.0 mi East 4.6 mph - N/A   Clear
8:15 AM 72.5 °F - 68.4 °F 87% 29.99 in 10.0 mi ESE 5.8 mph - N/A   Clear
8:35 AM 74.8 °F - 68.9 °F 82% 29.99 in 10.0 mi SE 3.5 mph - N/A   Clear
8:55 AM 77.4 °F - 68.7 °F 75% 29.99 in 10.0 mi South 8.1 mph - N/A   Clear
9:15 AM 79.3 °F - 68.0 °F 68% 29.99 in 10.0 mi SSE 8.1 mph 16.1 mph N/A   Clear
9:55 AM 82.4 °F 85.4 °F 68.2 °F 62% 29.99 in 10.0 mi SSE 5.8 mph - N/A   Clear
10:15 AM 83.5 °F 86.7 °F 68.2 °F 60% 29.99 in 10.0 mi SSE 8.1 mph - N/A   Clear
10:35 AM 85.3 °F 87.9 °F 67.1 °F 54% 29.99 in 10.0 mi South 6.9 mph 18.4 mph N/A   Clear
10:55 AM 87.3 °F 89.8 °F 66.7 °F 50% 29.99 in 10.0 mi SSE 5.8 mph 10.4 mph N/A   Clear
11:15 AM 88.3 °F 90.2 °F 65.1 °F 46% 29.98 in 10.0 mi South 18.4 mph 25.3 mph N/A   Clear
11:35 AM 89.6 °F 91.1 °F 64.4 °F 43% 29.98 in 10.0 mi SSE 9.2 mph 21.9 mph N/A   Clear
11:55 AM 89.1 °F 90.0 °F 63.1 °F 42% 29.98 in 10.0 mi SSW 13.8 mph 24.2 mph N/A   Clear
12:15 PM 89.6 °F 90.4 °F 63.0 °F 41% 29.97 in 10.0 mi SW 10.4 mph 28.8 mph N/A   Scattered Clouds
12:35 PM 90.3 °F 91.5 °F 63.5 °F 41% 29.96 in 10.0 mi SW 9.2 mph 19.6 mph N/A   Scattered Clouds
12:55 PM 89.2 °F 90.2 °F 63.7 °F 42% 29.96 in 10.0 mi South 12.7 mph 28.8 mph N/A   Scattered Clouds
1:15 PM 91.8 °F 92.6 °F 63.0 °F 38% 29.96 in 10.0 mi SSE 11.5 mph 24.2 mph N/A   Scattered Clouds
1:35 PM 91.8 °F 93.0 °F 63.5 °F 39% 29.95 in 10.0 mi South 13.8 mph 23.0 mph N/A   Scattered Clouds
1:55 PM 91.4 °F 92.8 °F 63.9 °F 40% 29.94 in 10.0 mi SSE 8.1 mph 24.2 mph N/A   Scattered Clouds
2:15 PM 92.5 °F 94.1 °F 64.2 °F 39% 29.94 in 10.0 mi SSW 10.4 mph 23.0 mph N/A   Scattered Clouds
2:35 PM 93.2 °F 94.5 °F 63.5 °F 37% 29.93 in 10.0 mi South 13.8 mph 20.7 mph N/A   Scattered Clouds
2:55 PM 93.4 °F 94.7 °F 63.1 °F 37% 29.93 in 10.0 mi SSE 10.4 mph 20.7 mph N/A   Clear
3:15 PM 93.7 °F 94.9 °F 63.1 °F 36% 29.91 in 10.0 mi South 11.5 mph 20.7 mph N/A   Scattered Clouds
3:35 PM 91.9 °F 92.9 °F 63.1 °F 38% 29.91 in 10.0 mi South 12.7 mph 19.6 mph N/A   Scattered Clouds
3:55 PM 93.2 °F 94.1 °F 62.8 °F 36% 29.89 in 10.0 mi South 10.4 mph 18.4 mph N/A   Clear
4:15 PM 94.1 °F 94.6 °F 61.9 °F 34% 29.88 in 10.0 mi SSE 11.5 mph 19.6 mph N/A   Scattered Clouds
4:35 PM 94.5 °F 95.6 °F 63.0 °F 35% 29.88 in 10.0 mi South 13.8 mph 23.0 mph N/A   Clear
4:55 PM 94.6 °F 95.1 °F 61.0 °F 33% 29.87 in 10.0 mi SSE 13.8 mph 23.0 mph N/A   Scattered Clouds
5:15 PM 93.6 °F 95.5 °F 64.6 °F 38% 29.86 in 10.0 mi SE 12.7 mph 20.7 mph N/A   Clear
5:35 PM 93.2 °F 94.5 °F 63.3 °F 37% 29.86 in 10.0 mi South 11.5 mph 18.4 mph N/A   Clear
5:55 PM 92.8 °F 94.7 °F 64.4 °F 39% 29.86 in 10.0 mi South 13.8 mph 23.0 mph N/A   Scattered Clouds
6:15 PM 91.6 °F 93.5 °F 64.9 °F 41% 29.86 in 10.0 mi South 12.7 mph 17.3 mph N/A   Scattered Clouds
6:35 PM 90.9 °F 93.1 °F 65.7 °F 43% 29.87 in 10.0 mi South 10.4 mph - N/A   Scattered Clouds
6:55 PM 89.8 °F 91.8 °F 65.5 °F 44% 29.86 in 10.0 mi SSE 10.4 mph - N/A   Scattered Clouds
7:15 PM 88.2 °F 90.6 °F 66.2 °F 48% 29.86 in 10.0 mi SE 9.2 mph - N/A   Clear
7:35 PM 86.0 °F 88.2 °F 66.2 °F 51% 29.87 in 10.0 mi SE 6.9 mph - N/A   Clear
7:55 PM 83.5 °F 86.0 °F 66.7 °F 57% 29.87 in 10.0 mi SSE 4.6 mph - N/A   Clear
8:15 PM 82.4 °F 85.0 °F 67.1 °F 60% 29.87 in 10.0 mi SE 4.6 mph - N/A   Clear
8:35 PM 80.8 °F 83.2 °F 66.9 °F 63% 29.87 in 10.0 mi SE 8.1 mph - N/A   Clear
8:55 PM 80.6 °F 82.9 °F 67.1 °F 63% 29.88 in 10.0 mi SE 5.8 mph - N/A   Clear
9:15 PM 79.7 °F - 67.3 °F 66% 29.88 in 10.0 mi SSE 4.6 mph - N/A   Clear
9:35 PM 79.0 °F - 67.5 °F 68% 29.89 in 10.0 mi SSE 3.5 mph - N/A   Clear
9:55 PM 78.6 °F - 67.6 °F 69% 29.89 in 10.0 mi SE 6.9 mph - N/A   Clear
10:15 PM 78.3 °F - 67.6 °F 70% 29.89 in 10.0 mi SSE 3.5 mph - N/A   Clear
10:35 PM 77.9 °F - 67.8 °F 71% 29.91 in 10.0 mi Calm Calm - N/A   Clear
10:55 PM 76.5 °F - 67.5 °F 74% 29.89 in 10.0 mi SE 3.5 mph - N/A   Clear
11:15 PM 77.0 °F - 67.6 °F 73% 29.89 in 10.0 mi Calm Calm - N/A   Clear
11:35 PM 73.9 °F - 67.5 °F 80% 29.91 in 10.0 mi Calm Calm - N/A   Clear
11:55 PM 76.1 °F - 67.8 °F 75% 29.90 in 10.0 mi Calm Calm - N/A   Scattered Clouds